World > North America > United States > Wisconsin

Sheboygan, Wisconsin Regional Weather

Lat: 43.75N, Lon: 87.72W
Wx Zone: WIZ052
Warning FLW WEATHER ALERT - (More Info. Click Here) Warning
Feedback

Sheboygan, WI Regional Weather

Expires:201907212200;;423828
ASUS43 KMKX 212121
RWRWI 

WISCONSIN REGIONAL WEATHER ROUNDUP
NATIONAL WEATHER SERVICE MILWAUKEE/SULLIVAN WI
400 PM CDT SUN JUL 21 2019

NOTE: "FAIR" INDICATES FEW OR NO CLOUDS BELOW 12,000 FEET WITH NO
SIGNIFICANT WEATHER AND/OR OBSTRUCTIONS TO VISIBILITY.


WIZ051-052-058>065-066-070>072-212200-
SOUTHEAST WISCONSIN
  
CITY           SKY/WX    TMP DP  RH WIND       PRES   REMARKS
MILWAUKEE      PTSUNNY   79  52  38 N13       29.98R                  
WAUKESHA       SUNNY     79  54  41 NE12G18   30.00R                  
MILWAUKEE/TIMM SUNNY     81  45  28 NE10      30.00R                  
RACINE         PTSUNNY   75  57  53 N9        30.01R                  
KENOSHA        PTSUNNY   76  58  53 NE9       29.99R                  
FOND DU LAC    FAIR      83  57  41 N9        29.99S HX  82           
SHEBOYGAN      FAIR      78  62  57 E8        29.98S HX  80           
WEST BEND      FAIR      81  55  41 N6        29.99R HX  80           
JUNEAU         FAIR      78  60  53 N7        30.01R HX  80           
$$


SKY/WX - Weather  TMP - Temperature  DP - Dew Point  RH - Relative Humidity
WIND - Wind Direction/Speed PRES - Barometric Pressure VSB - Visibility
WCI - Wind Chill Index E13G22 Wind - East Wind 13 mph/Gusts of 22 mph